Terug naar catalogus

SL-14 R/B

ActiefPO
NORAD 14552·ROCKET BODY·🇷🇺 Russia

Gelanceerd Dec 15, 1983 vanaf Plesetsk Cosmodrome

Loading…

Volgende Passages (komende 24 uur)

TLE

VersSource: Space-Track

Epoch: Sep 14, 2026, 23:18 UTC

1 14552U 83122B   26257.97127188  .00000292  00000-0  30538-4 0  9994
2 14552  82.5253 151.7304 0016674 167.5114 192.6519 14.85991894288946

Volg SL-14 R/B in realtime met AllMySat

Download on the App Store